Bad Axe, MI

12:25 PM EDT on May 25, 2018 (GMT -0400)
Huron County Memorial

Weather History for KBAX - February, 2013

Change the Weather History Date:

Wednesday, February 20, 2013

  Actual Average (KP58) Record (KP58)
Temperature  
Mean Temperature 17 °F -  
Max Temperature 20 °F 30 °F 61 °F (2018)
Min Temperature 14 °F 19 °F -15 °F (2015)
Degree Days  
Heating Degree Days 48    
Moisture  
Dew Point 8 °F    
Average Humidity 67    
Maximum Humidity 77    
Minimum Humidity 59    
Precipitation  
Precipitation 0.00 in - - ()
Sea Level Pressure  
Sea Level Pressure 30.03 in    
Wind  
Wind Speed 17 mph (WNW)    
Max Wind Speed 23 mph    
Max Gust Speed 31 mph    
Visibility 10 miles    
Events Snow    
Averages and records for this station are not official NWS values.
T = Trace of Precipitation, MM = Missing Value Source: NWS Daily Summary

Daily Weather History Graph

Daily Weather History Graph

Search for Another Location

Airport or City:

Astronomy

Feb. 20, 2013 Rise Set
Actual Time 7:22 AM EST 6:09 PM EST
Civil Twilight 6:53 AM EST 6:38 PM EST
Nautical Twilight 6:20 AM EST 7:11 PM EST
Astronomical Twilight 5:46 AM EST 7:45 PM EST
Moon 1:23 PM EST (2/20) 3:48 AM EST (2/20)
Length of Visible Light 11h 44m
Length of Day
10h 46m
Waxing Gibbous, 76% of the Moon is Illuminated
Feb 20
Waxing Gibbous
Feb 25
Full
Mar 4
Last Quarter
Mar 11
New
Mar 19
First Quarter

Hourly Weather History & Observations

Time (EST) Temp. Windchill Dew Point Humidity Pressure Visibility Wind Dir Wind Speed Gust Speed Precip Events Conditions
12:13 AM 18.1 °F 2.4 °F 10.6 °F 72% 29.81 in 5.0 mi West 18.4 mph 28.8 mph N/A Snow Light Snow
12:34 AM 17.6 °F 0.9 °F 9.3 °F 70% 29.81 in 7.0 mi West 20.7 mph 28.8 mph N/A   Overcast
12:54 AM 17.4 °F 2.9 °F 7.5 °F 65% 29.82 in 10.0 mi West 15.0 mph 27.6 mph N/A   Overcast
1:13 AM 17.1 °F 1.0 °F 7.5 °F 66% 29.82 in 10.0 mi West 18.4 mph 29.9 mph N/A   Overcast
1:34 AM 16.7 °F -0.3 °F 7.3 °F 67% 29.83 in 10.0 mi West 20.7 mph 28.8 mph N/A   Overcast
1:54 AM 16.7 °F 0.5 °F 6.6 °F 65% 29.83 in 10.0 mi West 18.4 mph 26.5 mph N/A   Overcast
2:13 AM 16.7 °F -0.7 °F 6.6 °F 65% 29.84 in 10.0 mi West 21.9 mph 31.1 mph N/A   Overcast
2:34 AM 16.7 °F -1.1 °F 6.8 °F 65% 29.84 in 10.0 mi West 23.0 mph 28.8 mph N/A   Overcast
2:54 AM 16.7 °F 1.0 °F 7.2 °F 66% 29.85 in 10.0 mi West 17.3 mph 28.8 mph N/A   Overcast
3:13 AM 16.7 °F -0.7 °F 7.5 °F 67% 29.85 in 10.0 mi West 21.9 mph 28.8 mph N/A Snow Light Snow
3:34 AM 16.7 °F -0.7 °F 7.9 °F 68% 29.86 in 7.0 mi West 21.9 mph 28.8 mph N/A   Overcast
3:53 AM 16.3 °F 0.1 °F 8.8 °F 72% 29.87 in 4.0 mi West 18.4 mph 27.6 mph N/A Snow Light Snow
4:14 AM 15.8 °F -0.2 °F 9.5 °F 76% 29.88 in 4.0 mi West 17.3 mph 27.6 mph N/A Snow Light Snow
4:34 AM 15.8 °F -0.2 °F 8.4 °F 73% 29.88 in 10.0 mi West 17.3 mph 26.5 mph N/A   Overcast
4:54 AM 15.8 °F -0.2 °F 8.4 °F 73% 29.89 in 10.0 mi West 17.3 mph 23.0 mph N/A   Overcast
5:13 AM 15.8 °F -0.2 °F 8.4 °F 73% 29.89 in 10.0 mi West 17.3 mph 25.3 mph N/A   Overcast
5:34 AM 15.8 °F -0.6 °F 8.4 °F 73% 29.90 in 10.0 mi WNW 18.4 mph 24.2 mph N/A   Overcast
5:54 AM 15.8 °F -0.6 °F 8.6 °F 73% 29.91 in 10.0 mi WNW 18.4 mph 25.3 mph N/A   Overcast
6:13 AM 15.8 °F -1.5 °F 6.3 °F 66% 29.92 in 10.0 mi WNW 20.7 mph 29.9 mph N/A   Overcast
6:34 AM 15.6 °F -1.8 °F 4.1 °F 60% 29.93 in 10.0 mi WNW 20.7 mph 27.6 mph N/A   Overcast
6:54 AM 15.3 °F -2.2 °F 4.6 °F 63% 29.94 in 10.0 mi NW 20.7 mph 29.9 mph N/A   Overcast
7:13 AM 15.1 °F -1.1 °F 4.5 °F 63% 29.95 in 10.0 mi WNW 17.3 mph 27.6 mph N/A   Overcast
7:34 AM 14.9 °F 0.9 °F 5.2 °F 65% 29.96 in 10.0 mi NW 12.7 mph 20.7 mph N/A   Overcast
7:54 AM 14.9 °F 0.9 °F 5.5 °F 66% 29.97 in 10.0 mi WNW 12.7 mph 19.6 mph N/A   Overcast
8:13 AM 14.9 °F 0.3 °F 6.3 °F 69% 29.98 in 10.0 mi WNW 13.8 mph 21.9 mph N/A   Overcast
8:34 AM 14.9 °F 0.3 °F 6.8 °F 70% 29.99 in 10.0 mi WNW 13.8 mph 23.0 mph N/A   Overcast
8:54 AM 14.7 °F -1.1 °F 6.4 °F 70% 30.00 in 10.0 mi NW 16.1 mph - N/A   Overcast
9:14 AM 14.9 °F -2.7 °F 6.4 °F 69% 30.00 in 10.0 mi NW 20.7 mph 26.5 mph N/A   Overcast
9:34 AM 14.9 °F -0.8 °F 6.8 °F 70% 30.01 in 10.0 mi NW 16.1 mph 19.6 mph N/A Snow Light Snow
9:54 AM 14.9 °F -1.3 °F 7.5 °F 73% 30.01 in 5.0 mi NW 17.3 mph 27.6 mph N/A Snow Light Snow
10:14 AM 14.7 °F -2.9 °F 7.3 °F 73% 30.01 in 5.0 mi NW 20.7 mph 26.5 mph N/A Snow Light Snow
10:34 AM 14.9 °F -1.8 °F 6.8 °F 70% 30.02 in 10.0 mi NW 18.4 mph 25.3 mph N/A Snow Light Snow
10:54 AM 14.9 °F -2.3 °F 6.8 °F 70% 30.03 in 10.0 mi NW 19.6 mph 25.3 mph N/A   Overcast
11:14 AM 15.4 °F -2.0 °F 6.6 °F 68% 30.04 in 10.0 mi NW 20.7 mph 25.3 mph N/A   Overcast
11:34 AM 15.6 °F 0.1 °F 6.3 °F 67% 30.05 in 10.0 mi NW 16.1 mph 26.5 mph N/A   Overcast
11:54 AM 15.8 °F 0.9 °F 6.8 °F 68% 30.06 in 10.0 mi NW 15.0 mph 23.0 mph N/A   Overcast
12:14 PM 16.2 °F 1.9 °F 7.0 °F 67% 30.06 in 10.0 mi WNW 13.8 mph 24.2 mph N/A   Overcast
12:34 PM 16.5 °F 3.6 °F 6.8 °F 66% 30.07 in 10.0 mi WNW 11.5 mph 19.6 mph N/A   Overcast
12:54 PM 17.2 °F 4.5 °F 7.5 °F 66% 30.07 in 10.0 mi WNW 11.5 mph 17.3 mph N/A   Overcast
1:14 PM 17.4 °F 1.9 °F 7.5 °F 65% 30.07 in 10.0 mi NW 17.3 mph - N/A   Overcast
1:34 PM 17.6 °F 3.2 °F 7.5 °F 65% 30.07 in 10.0 mi NW 15.0 mph 18.4 mph N/A   Overcast
1:54 PM 18.7 °F 5.1 °F 7.9 °F 63% 30.07 in 10.0 mi NW 13.8 mph 20.7 mph N/A   Overcast
2:14 PM 19.4 °F 6.6 °F 7.5 °F 60% 30.07 in 10.0 mi WNW 12.7 mph 20.7 mph N/A   Mostly Cloudy
2:34 PM 19.9 °F 6.7 °F 8.6 °F 61% 30.07 in 10.0 mi NW 13.8 mph 20.7 mph N/A   Scattered Clouds
2:54 PM 19.8 °F 7.1 °F 7.9 °F 60% 30.08 in 10.0 mi WNW 12.7 mph 19.6 mph N/A   Mostly Cloudy
3:14 PM 19.9 °F 5.7 °F 7.9 °F 60% 30.09 in 10.0 mi WNW 16.1 mph 19.6 mph N/A   Mostly Cloudy
3:34 PM 20.5 °F 6.9 °F 8.1 °F 59% 30.10 in 10.0 mi WNW 15.0 mph - N/A   Overcast
3:54 PM 20.5 °F 10.0 °F 8.6 °F 60% 30.10 in 10.0 mi WNW 9.2 mph 18.4 mph N/A   Overcast
4:14 PM 20.7 °F 8.2 °F 8.8 °F 60% 30.10 in 10.0 mi WNW 12.7 mph - N/A   Overcast
4:34 PM 20.5 °F 9.2 °F 8.8 °F 61% 30.11 in 10.0 mi WNW 10.4 mph - N/A   Overcast
4:54 PM 20.5 °F 8.0 °F 9.0 °F 61% 30.12 in 10.0 mi WNW 12.7 mph 16.1 mph N/A   Overcast
5:14 PM 20.3 °F 7.7 °F 9.5 °F 63% 30.13 in 10.0 mi WNW 12.7 mph 16.1 mph N/A   Overcast
5:34 PM 20.1 °F 6.4 °F 9.5 °F 63% 30.14 in 10.0 mi West 15.0 mph 20.7 mph N/A   Overcast
5:54 PM 20.1 °F 7.5 °F 9.7 °F 64% 30.14 in 10.0 mi West 12.7 mph 18.4 mph N/A   Overcast
6:14 PM 19.8 °F 6.5 °F 9.3 °F 64% 30.15 in 10.0 mi WNW 13.8 mph 19.6 mph N/A   Overcast
6:34 PM 19.4 °F 6.6 °F 9.1 °F 64% 30.15 in 10.0 mi West 12.7 mph 21.9 mph N/A   Overcast
6:54 PM 19.4 °F 6.6 °F 9.3 °F 65% 30.16 in 10.0 mi WNW 12.7 mph 17.3 mph N/A   Overcast
7:15 PM 19.4 °F 6.6 °F 8.8 °F 63% 30.16 in 10.0 mi WNW 12.7 mph 18.4 mph N/A   Overcast
7:34 PM 19.0 °F 5.0 °F 8.6 °F 64% 30.17 in 10.0 mi NW 15.0 mph 20.7 mph N/A   Overcast
7:54 PM 18.5 °F 3.8 °F 9.3 °F 67% 30.17 in 10.0 mi NW 16.1 mph 20.7 mph N/A   Overcast
8:15 PM 18.3 °F 3.6 °F 8.6 °F 66% 30.17 in 10.0 mi NW 16.1 mph 21.9 mph N/A   Overcast
8:34 PM 18.1 °F 4.4 °F 9.1 °F 68% 30.17 in 10.0 mi NW 13.8 mph 19.6 mph N/A   Overcast
8:54 PM 17.6 °F 1.7 °F 9.3 °F 70% 30.17 in 10.0 mi NW 18.4 mph - N/A   Overcast
9:15 PM 17.6 °F 5.0 °F 9.5 °F 71% 30.18 in 10.0 mi NNW 11.5 mph 15.0 mph N/A   Overcast
9:34 PM 17.1 °F 2.5 °F 9.3 °F 72% 30.18 in 10.0 mi NW 15.0 mph - N/A   Overcast
9:54 PM 16.7 °F 2.6 °F 10.0 °F 75% 30.19 in 10.0 mi NNW 13.8 mph - N/A Snow Light Snow
10:15 PM 16.5 °F 0.8 °F 9.9 °F 75% 30.19 in 10.0 mi NNW 17.3 mph 21.9 mph N/A   Overcast
10:34 PM 16.2 °F 1.9 °F 9.9 °F 76% 30.19 in 10.0 mi NNW 13.8 mph 19.6 mph N/A Snow Light Snow
10:54 PM 15.8 °F -0.2 °F 9.5 °F 76% 30.19 in 10.0 mi NNW 17.3 mph - N/A Snow Light Snow
11:13 PM 15.6 °F -1.3 °F 9.5 °F 77% 30.20 in 10.0 mi NNW 19.6 mph 24.2 mph N/A Snow Light Snow
11:34 PM 14.5 °F -0.7 °F 8.1 °F 75% 30.20 in 10.0 mi NNW 15.0 mph 20.7 mph N/A   Overcast
11:54 PM 14.7 °F 0.1 °F 8.6 °F 77% 30.20 in 10.0 mi NNW 13.8 mph 23.0 mph N/A Snow Light Snow